User: anonymous   Login
Location: Livonia
(42.3680°N, 83.3530°W)
Time: 03:26:42
(UTC-05:00)
Language:

MOZ.5/SAFIR/RUBIN 5/SL-8 - Orbit

View from above orbital plane
View from above orbital plane
View from above satellite
View from above satellite

Ground track
Ground track

The orbit data is extracted from the following two-line orbital elements,

1 28898U 05043G   16339.84752017  .00000072  00000-0  24107-4 0  9990
2 28898  97.8991 132.3810 0021153  79.8237 280.5349 14.60149835591474
Epoch (UTC): 04 December 2016 20:20:25
Eccentricity: 0.0021153
inclination: 97.8991°
perigee height: 678 km
apogee height: 707 km
right ascension of ascending node: 132.3810°
argument of perigee: 79.8237°
revolutions per day: 14.60149835
mean anomaly at epoch: 280.5349°
orbit number at epoch: 59147

The dashed part of the orbit path shows where the satellite is in the earth's shadow,  

DLR